Regional Weather Roundup
Issued by NWS

Home | Current Version | Previous Version | Text Only | Print | Product List | Glossary Off
Versions: 1 2 3 4 5 6 7 8 9 10 11 12 13 14 15 16 17 18 19 20 21 22 23 24 25 26 27 28 29 30 31 32 33 34 35 36 37 38 39 40 41 42 43 44 45 46 47 48 49 50

000
ASUS43 KBIS 042102
RWRND

NORTH DAKOTA REGIONAL WEATHER ROUNDUP
NATIONAL WEATHER SERVICE BISMARCK ND
400 PM CDT TUE AUG 04 2015

NOTE: "FAIR" INDICATES FEW OR NO CLOUDS BELOW 12,000 FEET WITH NO
SIGNIFICANT WEATHER AND/OR OBSTRUCTIONS TO VISIBILITY.


NDZ001>003-009>011-017-042200-
NORTHWEST NORTH DAKOTA

CITY           SKY/WX    TMP DP  RH WIND       PRES   REMARKS
WILLISTON      MOSUNNY   89  52  28 SE13      29.91F
MINOT          SUNNY     83  47  28 SE12G17   29.96S
MINOT AFB      SUNNY     83  49  30 SE13      29.95F
$$

NDZ018>021-031>035-040>046-042200-
SOUTHWEST NORTH DAKOTA

CITY           SKY/WX    TMP DP  RH WIND       PRES   REMARKS
BISMARCK       SUNNY     86  53  32 S6        29.96S
DICKINSON      SUNNY     85  54  34 S14G24    29.94S
GARRISON         N/A     81  56  42 E6        29.96S
HETTINGER ARPT MOSUNNY   86  54  33 SE14      29.96F
$$

NDZ004>008-012>016-024-026-027-054-042200-
NORTHEAST NORTH DAKOTA

CITY           SKY/WX    TMP DP  RH WIND       PRES   REMARKS
GRAND FORKS    MOSUNNY   77  55  46 N8        30.00S
GRND FRKS AFB  SUNNY     76  55  48 N7        30.01S
DEVILS LAKE    SUNNY     75  48  38 SE6       30.00S
$$

NDZ022-023-025-028>030-036>039-047>053-042200-
SOUTHEAST NORTH DAKOTA

CITY           SKY/WX    TMP DP  RH WIND       PRES   REMARKS
FARGO          SUNNY     81  51  35 N10       29.99S
JAMESTOWN      SUNNY     78  52  40 VRB3      29.99F
$$




USA.gov is the U.S. government's official web portal to all federal, state and local government web resources and services.